Time,TemperatureF,DewpointF,PressureIn,WindDirection,WindDirectionDegrees,WindSpeedMPH,WindSpeedGustMPH,Humidity,HourlyPrecipIn,Conditions,Clouds,dailyrainin,SoftwareType,DateUTC
2013-03-03 00:01:00,45.0,-99.9,-100.00,WSW,249,9.0,11.0,-999,-99.99,,,-99.99,,2013-03-03 08:01:00,
2013-03-03 00:11:00,45.0,-99.9,-100.00,WSW,249,9.0,11.0,-999,-99.99,,,-99.99,,2013-03-03 08:11:00,
2013-03-03 00:32:00,44.0,-99.9,-100.00,NNW,344,4.0,13.0,-999,-99.99,,,-99.99,,2013-03-03 08:32:00,
2013-03-03 00:42:00,44.0,-99.9,-100.00,NNW,344,4.0,13.0,-999,-99.99,,,-99.99,,2013-03-03 08:42:00,
2013-03-03 00:54:00,44.0,-99.9,-100.00,NNW,344,4.0,13.0,-999,-99.99,,,-99.99,,2013-03-03 08:54:00,
2013-03-03 01:00:00,43.0,-99.9,-100.00,West,264,7.0,21.0,-999,-99.99,,,-99.99,,2013-03-03 09:00:00,
2013-03-03 01:02:00,44.0,-99.9,-100.00,WNW,283,7.0,16.0,-999,-99.99,,,-99.99,,2013-03-03 09:02:00,
2013-03-03 01:12:00,44.0,-99.9,-100.00,WNW,283,7.0,16.0,-999,-99.99,,,-99.99,,2013-03-03 09:12:00,
2013-03-03 01:22:00,44.0,-99.9,-100.00,WNW,283,7.0,16.0,-999,-99.99,,,-99.99,,2013-03-03 09:22:00,
2013-03-03 01:32:00,44.0,-99.9,-100.00,West,273,8.0,15.0,-999,-99.99,,,-99.99,,2013-03-03 09:32:00,
2013-03-03 01:42:00,44.0,-99.9,-100.00,West,273,8.0,15.0,-999,-99.99,,,-99.99,,2013-03-03 09:42:00,
2013-03-03 01:52:00,43.0,-99.9,-100.00,West,264,7.0,21.0,-999,-99.99,,,-99.99,,2013-03-03 09:52:00,
2013-03-03 02:32:00,44.0,-99.9,-100.00,West,270,15.0,22.0,-999,-99.99,,,-99.99,,2013-03-03 10:32:00,
2013-03-03 02:42:00,44.0,-99.9,-100.00,West,270,15.0,22.0,-999,-99.99,,,-99.99,,2013-03-03 10:42:00,
2013-03-03 02:52:00,44.0,-99.9,-100.00,West,270,15.0,22.0,-999,-99.99,,,-99.99,,2013-03-03 10:52:00,
2013-03-03 03:02:00,42.0,-99.9,-100.00,WNW,292,9.0,9.0,-999,-99.99,,,-99.99,,2013-03-03 11:02:00,
2013-03-03 03:11:00,42.0,-99.9,-100.00,WNW,292,9.0,9.0,-999,-99.99,,,-99.99,,2013-03-03 11:11:00,
2013-03-03 03:20:00,40.0,-99.9,-100.00,NW,304,7.0,16.0,-999,-99.99,,,-99.99,,2013-03-03 11:20:00,
2013-03-03 03:32:00,43.0,-99.9,-100.00,WNW,284,6.0,23.0,-999,-99.99,,,-99.99,,2013-03-03 11:32:00,
2013-03-03 03:42:00,43.0,-99.9,-100.00,WNW,284,6.0,23.0,-999,-99.99,,,-99.99,,2013-03-03 11:42:00,
2013-03-03 03:53:00,43.0,-99.9,-100.00,WNW,284,6.0,23.0,-999,-99.99,,,-99.99,,2013-03-03 11:53:00,
2013-03-03 04:02:00,40.0,-99.9,-100.00,NW,304,7.0,16.0,-999,-99.99,,,-99.99,,2013-03-03 12:02:00,
2013-03-03 04:11:00,40.0,-99.9,-100.00,NW,304,7.0,16.0,-999,-99.99,,,-99.99,,2013-03-03 12:11:00,
2013-03-03 04:20:00,41.0,-99.9,-100.00,West,261,13.0,18.0,-999,-99.99,,,-99.99,,2013-03-03 12:20:00,
2013-03-03 04:32:00,41.0,-99.9,-100.00,West,266,8.0,11.0,-999,-99.99,,,-99.99,,2013-03-03 12:32:00,
2013-03-03 04:43:00,41.0,-99.9,-100.00,West,266,8.0,11.0,-999,-99.99,,,-99.99,,2013-03-03 12:43:00,
2013-03-03 04:53:00,41.0,-99.9,-100.00,West,266,8.0,11.0,-999,-99.99,,,-99.99,,2013-03-03 12:53:00,
2013-03-03 05:00:00,41.0,-99.9,-100.00,West,279,7.0,13.0,-999,-99.99,,,-99.99,,2013-03-03 13:00:00,
2013-03-03 05:02:00,41.0,-99.9,-100.00,West,261,13.0,18.0,-999,-99.99,,,-99.99,,2013-03-03 13:02:00,
2013-03-03 05:11:00,41.0,-99.9,-100.00,West,261,13.0,18.0,-999,-99.99,,,-99.99,,2013-03-03 13:11:00,
2013-03-03 05:32:00,42.0,-99.9,-100.00,WNW,283,7.0,10.0,-999,-99.99,,,-99.99,,2013-03-03 13:32:00,
2013-03-03 05:42:00,42.0,-99.9,-100.00,WNW,283,7.0,10.0,-999,-99.99,,,-99.99,,2013-03-03 13:42:00,
2013-03-03 05:52:00,41.0,-99.9,-100.00,West,279,7.0,13.0,-999,-99.99,,,-99.99,,2013-03-03 13:52:00,
2013-03-03 06:22:00,40.0,-99.9,-100.00,WSW,238,3.0,7.0,-999,-99.99,,,-99.99,,2013-03-03 14:22:00,
2013-03-03 06:32:00,40.0,-99.9,-100.00,WNW,298,5.0,11.0,-999,-99.99,,,-99.99,,2013-03-03 14:32:00,
2013-03-03 06:42:00,40.0,-99.9,-100.00,WNW,298,5.0,11.0,-999,-99.99,,,-99.99,,2013-03-03 14:42:00,
2013-03-03 06:52:00,40.0,-99.9,-100.00,WNW,298,5.0,11.0,-999,-99.99,,,-99.99,,2013-03-03 14:52:00,
2013-03-03 07:02:00,40.0,-99.9,-100.00,WNW,293,4.0,10.0,-999,-99.99,,,-99.99,,2013-03-03 15:02:00,
2013-03-03 07:10:00,40.0,-99.9,-100.00,WNW,300,1.0,14.0,-999,-99.99,,,-99.99,,2013-03-03 15:10:00,
2013-03-03 07:11:00,40.0,-99.9,-100.00,WNW,293,4.0,10.0,-999,-99.99,,,-99.99,,2013-03-03 15:11:00,
2013-03-03 07:22:00,40.0,-99.9,-100.00,WNW,298,5.0,9.0,-999,-99.99,,,-99.99,,2013-03-03 15:22:00,
2013-03-03 07:33:00,42.0,-99.9,-100.00,West,266,6.0,14.0,-999,-99.99,,,-99.99,,2013-03-03 15:33:00,
2013-03-03 07:42:00,42.0,-99.9,-100.00,West,266,6.0,14.0,-999,-99.99,,,-99.99,,2013-03-03 15:42:00,
2013-03-03 07:52:00,40.0,-99.9,-100.00,WNW,300,1.0,14.0,-999,-99.99,,,-99.99,,2013-03-03 15:52:00,
2013-03-03 08:02:00,40.0,-99.9,-100.00,WNW,300,1.0,14.0,-999,-99.99,,,-99.99,,2013-03-03 16:02:00,
2013-03-03 08:22:00,43.0,-99.9,-100.00,NNW,347,8.0,12.0,-999,-99.99,,,-99.99,,2013-03-03 16:22:00,
2013-03-03 08:32:00,43.0,-99.9,-100.00,NNW,340,8.0,10.0,-999,-99.99,,,-99.99,,2013-03-03 16:32:00,
2013-03-03 08:42:00,43.0,-99.9,-100.00,NNW,340,8.0,10.0,-999,-99.99,,,-99.99,,2013-03-03 16:42:00,
2013-03-03 08:52:00,43.0,-99.9,-100.00,NNW,340,8.0,10.0,-999,-99.99,,,-99.99,,2013-03-03 16:52:00,
2013-03-03 09:01:00,43.0,-99.9,-100.00,NW,319,2.0,6.0,-999,-99.99,,,-99.99,,2013-03-03 17:01:00,
2013-03-03 09:12:00,43.0,-99.9,-100.00,NW,319,2.0,6.0,-999,-99.99,,,-99.99,,2013-03-03 17:12:00,
2013-03-03 09:32:00,44.0,-99.9,-100.00,West,268,5.0,12.0,-999,-99.99,,,-99.99,,2013-03-03 17:32:00,
2013-03-03 09:42:00,44.0,-99.9,-100.00,West,268,5.0,12.0,-999,-99.99,,,-99.99,,2013-03-03 17:42:00,
2013-03-03 09:52:00,44.0,-99.9,-100.00,West,268,5.0,12.0,-999,-99.99,,,-99.99,,2013-03-03 17:52:00,
2013-03-03 10:02:00,45.0,-99.9,-100.00,WNW,284,8.0,13.0,-999,-99.99,,,-99.99,,2013-03-03 18:02:00,
2013-03-03 10:11:00,45.0,-99.9,-100.00,WNW,284,8.0,13.0,-999,-99.99,,,-99.99,,2013-03-03 18:11:00,
2013-03-03 10:22:00,45.0,-99.9,-100.00,WNW,284,8.0,13.0,-999,-99.99,,,-99.99,,2013-03-03 18:22:00,
2013-03-03 10:32:00,45.0,-99.9,-100.00,WSW,253,13.0,14.0,-999,-99.99,,,-99.99,,2013-03-03 18:32:00,
2013-03-03 10:42:00,45.0,-99.9,-100.00,WSW,253,13.0,14.0,-999,-99.99,,,-99.99,,2013-03-03 18:42:00,
2013-03-03 10:53:00,45.0,-99.9,-100.00,WSW,253,13.0,14.0,-999,-99.99,,,-99.99,,2013-03-03 18:53:00,
2013-03-03 11:32:00,47.0,-99.9,-100.00,WSW,256,9.0,9.0,-999,-99.99,,,-99.99,,2013-03-03 19:32:00,
2013-03-03 11:42:00,47.0,-99.9,-100.00,WSW,256,9.0,9.0,-999,-99.99,,,-99.99,,2013-03-03 19:42:00,
2013-03-03 11:52:00,47.0,-99.9,-100.00,WSW,256,9.0,9.0,-999,-99.99,,,-99.99,,2013-03-03 19:52:00,
2013-03-03 12:32:00,48.0,-99.9,-100.00,West,263,9.0,21.0,-999,-99.99,,,-99.99,,2013-03-03 20:32:00,
2013-03-03 12:43:00,48.0,-99.9,-100.00,West,263,9.0,21.0,-999,-99.99,,,-99.99,,2013-03-03 20:43:00,
2013-03-03 12:53:00,48.0,-99.9,-100.00,West,263,9.0,21.0,-999,-99.99,,,-99.99,,2013-03-03 20:53:00,
2013-03-03 13:32:00,47.0,-99.9,-100.00,WSW,256,18.0,22.0,-999,-99.99,,,-99.99,,2013-03-03 21:32:00,
2013-03-03 13:42:00,47.0,-99.9,-100.00,WSW,256,18.0,22.0,-999,-99.99,,,-99.99,,2013-03-03 21:42:00,
2013-03-03 13:52:00,47.0,-99.9,-100.00,WSW,256,18.0,22.0,-999,-99.99,,,-99.99,,2013-03-03 21:52:00,
2013-03-03 14:32:00,47.0,-99.9,-100.00,West,273,19.0,19.0,-999,-99.99,,,-99.99,,2013-03-03 22:32:00,
2013-03-03 14:42:00,47.0,-99.9,-100.00,West,273,19.0,19.0,-999,-99.99,,,-99.99,,2013-03-03 22:42:00,
2013-03-03 14:53:00,47.0,-99.9,-100.00,West,273,19.0,19.0,-999,-99.99,,,-99.99,,2013-03-03 22:53:00,
2013-03-03 15:32:00,49.0,-99.9,-100.00,West,270,14.0,20.0,-999,-99.99,,,-99.99,,2013-03-03 23:32:00,
2013-03-03 15:42:00,49.0,-99.9,-100.00,West,270,14.0,20.0,-999,-99.99,,,-99.99,,2013-03-03 23:42:00,
2013-03-03 15:52:00,49.0,-99.9,-100.00,West,270,14.0,20.0,-999,-99.99,,,-99.99,,2013-03-03 23:52:00,
2013-03-03 16:32:00,48.0,-99.9,-100.00,WNW,300,9.0,19.0,-999,-99.99,,,-99.99,,2013-03-04 00:32:00,
2013-03-03 16:42:00,48.0,-99.9,-100.00,WNW,300,9.0,19.0,-999,-99.99,,,-99.99,,2013-03-04 00:42:00,
2013-03-03 16:52:00,48.0,-99.9,-100.00,WNW,300,9.0,19.0,-999,-99.99,,,-99.99,,2013-03-04 00:52:00,
2013-03-03 17:32:00,47.0,-99.9,-100.00,West,272,14.0,20.0,-999,-99.99,,,-99.99,,2013-03-04 01:32:00,
2013-03-03 17:42:00,47.0,-99.9,-100.00,West,272,14.0,20.0,-999,-99.99,,,-99.99,,2013-03-04 01:42:00,
2013-03-03 17:52:00,47.0,-99.9,-100.00,West,272,14.0,20.0,-999,-99.99,,,-99.99,,2013-03-04 01:52:00,
2013-03-03 18:22:00,47.0,-99.9,-100.00,WSW,244,13.0,15.0,-999,-99.99,,,-99.99,,2013-03-04 02:22:00,
2013-03-03 18:32:00,47.0,-99.9,-100.00,West,266,8.0,11.0,-999,-99.99,,,-99.99,,2013-03-04 02:32:00,
2013-03-03 18:42:00,47.0,-99.9,-100.00,West,266,8.0,11.0,-999,-99.99,,,-99.99,,2013-03-04 02:42:00,
2013-03-03 18:53:00,44.0,-99.9,-100.00,West,262,5.0,10.0,-999,-99.99,,,-99.99,,2013-03-04 02:53:00,
2013-03-03 19:02:00,45.0,-99.9,-100.00,WNW,283,6.0,10.0,-999,-99.99,,,-99.99,,2013-03-04 03:02:00,
2013-03-03 19:12:00,45.0,-99.9,-100.00,WNW,283,6.0,10.0,-999,-99.99,,,-99.99,,2013-03-04 03:12:00,
2013-03-03 19:20:00,44.0,-99.9,-100.00,WSW,238,16.0,16.0,-999,-99.99,,,-99.99,,2013-03-04 03:20:00,
2013-03-03 19:32:00,45.0,-99.9,-100.00,West,271,5.0,9.0,-999,-99.99,,,-99.99,,2013-03-04 03:32:00,
2013-03-03 19:42:00,45.0,-99.9,-100.00,West,271,5.0,9.0,-999,-99.99,,,-99.99,,2013-03-04 03:42:00,
2013-03-03 19:53:00,44.0,-99.9,-100.00,WNW,283,6.0,10.0,-999,-99.99,,,-99.99,,2013-03-04 03:53:00,
2013-03-03 20:02:00,44.0,-99.9,-100.00,WSW,238,16.0,16.0,-999,-99.99,,,-99.99,,2013-03-04 04:02:00,
2013-03-03 20:11:00,44.0,-99.9,-100.00,WSW,238,16.0,16.0,-999,-99.99,,,-99.99,,2013-03-04 04:11:00,
2013-03-03 20:32:00,45.0,-99.9,-100.00,WNW,292,6.0,8.0,-999,-99.99,,,-99.99,,2013-03-04 04:32:00,
2013-03-03 20:42:00,45.0,-99.9,-100.00,WNW,292,6.0,8.0,-999,-99.99,,,-99.99,,2013-03-04 04:42:00,
2013-03-03 20:52:00,44.0,-99.9,-100.00,NNW,328,3.0,7.0,-999,-99.99,,,-99.99,,2013-03-04 04:52:00,
2013-03-03 21:00:00,40.0,-99.9,-100.00,West,263,2.0,5.0,-999,-99.99,,,-99.99,,2013-03-04 05:00:00,
2013-03-03 21:01:00,44.0,-99.9,-100.00,NW,324,6.0,12.0,-999,-99.99,,,-99.99,,2013-03-04 05:01:00,
2013-03-03 21:11:00,44.0,-99.9,-100.00,NW,324,6.0,12.0,-999,-99.99,,,-99.99,,2013-03-04 05:11:00,
2013-03-03 21:22:00,42.0,-99.9,-100.00,WNW,283,2.0,5.0,-999,-99.99,,,-99.99,,2013-03-04 05:22:00,
2013-03-03 21:32:00,39.0,-99.9,-100.00,WNW,293,1.0,5.0,-999,-99.99,,,-99.99,,2013-03-04 05:32:00,
2013-03-03 21:43:00,39.0,-99.9,-100.00,WNW,293,1.0,5.0,-999,-99.99,,,-99.99,,2013-03-04 05:43:00,
2013-03-03 21:52:00,40.0,-99.9,-100.00,West,263,2.0,5.0,-999,-99.99,,,-99.99,,2013-03-04 05:52:00,
2013-03-03 22:32:00,37.0,-99.9,-100.00,SSW,209,4.0,4.0,-999,-99.99,,,-99.99,,2013-03-04 06:32:00,
2013-03-03 22:42:00,37.0,-99.9,-100.00,SSW,209,4.0,4.0,-999,-99.99,,,-99.99,,2013-03-04 06:42:00,
2013-03-03 22:52:00,36.0,-99.9,-100.00,SW,230,2.0,4.0,-999,-99.99,,,-99.99,,2013-03-04 06:52:00,
2013-03-03 23:02:00,36.0,-99.9,-100.00,SW,230,2.0,4.0,-999,-99.99,,,-99.99,,2013-03-04 07:02:00,
2013-03-03 23:20:00,36.0,-99.9,-100.00,WSW,247,4.0,6.0,-999,-99.99,,,-99.99,,2013-03-04 07:20:00,
2013-03-03 23:32:00,37.0,-99.9,-100.00,WSW,246,4.0,6.0,-999,-99.99,,,-99.99,,2013-03-04 07:32:00,
2013-03-03 23:42:00,37.0,-99.9,-100.00,WSW,246,4.0,6.0,-999,-99.99,,,-99.99,,2013-03-04 07:42:00,
2013-03-03 23:52:00,37.0,-99.9,-100.00,WSW,256,5.0,5.0,-999,-99.99,,,-99.99,,2013-03-04 07:52:00,